Cloud_Cover
0 3 3 4 0 1 4 4 4 5 29 55 49 5 5 21 5 3 0 0 0 0 0 0 0 0 0 0 1 3 1 0 2 3 0 2 5 5 5 30 6 97 6 0 0
0 0 0 0 0 0 1 5 5 4 11 2 4 1 0 4 0 0 0 0 0 0 0 0 0 0 0 0 4 0 0 0 0 3 2 5 5 5 31 5 5 100 31 0 0
0 0 0 0 0 0 0 0 0 0 0 0 0 0 0 3 0 0 0 0 0 0 0 0 0 0 0 0 3 0 0 0 0 0 0 4 5 5 5 5 5 64 0 0 0
0 0 0 0 0 0 0 0 0 0 0 0 0 0 0 0 0 0 0 0 0 0 0 0 0 0 0 0 0 0 2 4 0 0 0 0 4 1 5 17 5 2 4 0 0
0 0 0 0 0 0 0 0 0 0 0 0 0 0 0 0 0 0 0 0 0 0 0 0 0 0 0 0 0 0 0 0 0 0 0 0 0 83 65 3 0 5 5 0 0
0 0 0 0 0 0 0 0 0 0 0 0 0 0 0 0 0 0 0 0 0 0 0 0 0 0 0 0 0 0 0 0 0 0 0 0 0 2 4 4 2 5 4 0 0
0 0 0 0 0 0 0 0 0 0 0 0 0 0 0 0 0 0 0 0 0 0 0 0 0 0 0 0 0 0 0 0 0 0 0 0 0 2 3 10 5 5 5 0 0
0 0 0 0 0 0 0 0 0 0 0 0 0 0 0 0 0 0 0 0 0 0 0 0 0 0 0 0 0 0 0 0 0 0 0 3 0 0 0 0 5 87 5 0 0
0 0 0 0 0 0 0 0 0 0 0 0 0 0 0 0 0 0 0 0 0 0 0 0 0 0 0 0 0 0 0 0 0 0 0 3 0 0 0 1 5 5 1 0 0
0 0 0 0 0 0 0 0 0 0 0 0 0 0 0 0 0 0 0 0 0 0 0 1 1 0 0 0 0 0 0 0 0 0 0 0 0 0 0 4 3 3 0 0 0
0 0 0 0 0 0 0 0 0 0 0 0 0 0 0 0 0 0 0 0 0 0 0 0 0 4 5 5 0 0 0 0 0 0 0 0 0 0 0 0 2 0 0 0 0
0 0 0 0 0 0 0 0 0 0 0 0 0 0 0 0 0 0 0 0 0 0 0 0 0 0 0 0 14 8 4 16 2 1 0 0 0 0 0 0 0 0 0 0 0
0 0 0 0 0 0 0 0 0 0 0 0 0 0 0 0 0 0 0 0 0 0 0 0 0 0 0 0 0 0 0 42 78 6 1 2 0 0 0 0 0 0 0 0 0
0 0 0 0 0 0 0 0 0 0 0 0 0 0 0 0 0 0 0 0 0 0 0 0 0 0 0 0 0 0 0 0 6 6 5 4 11 5 1 0 0 4 5 5 0
0 0 0 0 0 0 0 0 0 0 0 0 0 0 0 0 0 0 0 0 0 0 0 0 0 0 0 0 0 0 0 0 0 0 0 4 69 100 11 0 0 0 5 12 0
0 0 0 0 0 0 0 0 0 0 0 0 0 0 0 0 0 0 0 0 0 0 0 0 0 0 0 0 0 0 0 0 0 0 0 4 5 100 52 5 0 5 6 12 2
0 0 0 0 0 0 0 0 0 0 0 0 0 0 0 0 0 0 0 0 0 0 0 0 0 0 0 0 0 0 0 0 0 0 0 1 4 69 87 15 5 5 54 78 5
0 0 0 1 0 0 0 0 0 0 0 0 0 0 0 0 0 0 0 0 0 0 0 0 0 0 0 59 4 0 4 3 0 0 0 3 0 6 31 66 64 50 96 53 15
0 0 0 0 0 0 0 0 0 0 0 0 0 0 0 0 0 0 0 0 0 0 0 0 0 0 0 71 100 100 100 64 100 6 3 0 0 5 14 42 100 100 96 82 6
0 0 0 0 0 0 0 0 0 0 0 0 0 0 0 0 0 0 10 5 38 100 21 0 0 0 0 20 100 88 96 100 100 86 27 0 0 14 11 81 100 98 52 93 98
0 0 0 0 0 0 0 0 0 0 0 0 0 0 0 0 0 3 42 100 96 100 54 0 0 6 0 0 76 100 44 100 100 99 17 0 0 4 34 3 59 100 100 100 100
0 0 0 0 0 0 0 0 0 0 0 0 0 0 0 0 0 0 94 100 100 100 48 5 4 90 98 11 0 100 99 90 100 36 3 0 0 2 10 0 5 100 100 100 98
0 0 0 0 0 0 0 0 0 0 0 0 0 0 0 0 0 0 59 100 100 100 100 88 44 100 100 100 100 100 84 98 100 97 100 22 22 47 5 5 42 95 99 64 74
0 0 0 0 0 0 0 0 0 0 0 0 0 0 0 0 0 3 5 100 100 95 44 30 95 100 100 100 100 68 19 55 97 100 99 10 2 96 3 1 3 4 31 36 98
4 0 0 0 0 0 0 0 0 0 0 0 0 0 0 0 0 0 23 96 100 91 8 65 100 99 100 100 100 100 100 87 100 98 97 100 100 100 13 0 0 5 5 65 9
0 0 0 0 0 0 0 0 0 0 0 0 0 0 0 0 0 5 0 23 100 100 68 74 100 100 100 100 100 100 100 69 100 94 100 57 84 100 79 34 64 62 98 100 100
2 1 0 0 0 0 0 0 0 0 0 0 0 0 0 2 0 5 15 2 48 100 4 20 99 96 100 100 100 100 95 96 89 100 87 100 100 94 90 100 100 97 99 99 98